Location: Clay (historical)
(35.1476°N, 89.8179°W)
Time: 01:03:53
(UTC+00:00)

Lacrosse 4 Rocket - Pass Details

Date: 18 February 2026
Orbit: 511 x 564 km, 68.0° (Epoch: 7 March)

Event Time Altitude Azimuth Distance (km) Brightness Sun altitude
Rises 12:01:36 0° 354° (N) 2,658 4.7 -8.9°
Reaches altitude 10° 12:04:36 10° 19° (NNE) 1,776 4.1 -8.3°
Maximum altitude 12:06:53 15° 55° (NE) 1,504 4.2 -7.9°
Drops below altitude 10° 12:09:11 10° 90° (E) 1,789 5.6 -7.4°
Sets 12:12:13 0° 115° (ESE) 2,689 6.7 -6.8°
